This demonstration page uses our WeatherBlox Daily Observations layout. Learn more.

Left ArrowRight Arrow

Hourly Observations for January 11, 2020

Temp ( °F °C ) Dew Point ( °F °C ) Humidity (%) Winds ( mph kmh ) Pressure ( in mb ) Visibility ( mi km ) Precip ( " mm )
12:53 am 00:53 Cloudy 20 -6.7 14 -10 78 78 E 7 11 29.75 1007 10 16 0.00 0.00
1:53 am 01:53 Cloudy 20 -6.7 14 -10 78 78 ENE 6 9 29.73 1007 10 16 0.00 0.00
2:53 am 02:53 Cloudy 21 -6.1 15 -9.4 78 78 E 5 7 29.73 1007 10 16 0.00 0.00
3:53 am 03:53 Cloudy 21 -6.1 15 -9.4 78 78 E 5 7 29.71 1006 10 16 0.00 0.00
4:53 am 04:53 Mostly Cloudy 19 -7.2 15 -9.4 84 84 WSW 3 6 29.70 1006 10 16 0.00 0.00
5:53 am 05:53 Mostly Cloudy 28 -2.2 21 -6.1 75 75 SW 12 19 29.69 1005 10 16 0.00 0.00
6:53 am 06:53 Clear 21 -6.1 17 -8.3 85 85 NW 3 6 29.71 1006 10 16 0.00 0.00
7:53 am 07:53 Cloudy 23 -5 18 -7.8 81 81 W 5 7 29.71 1006 10 16 0.00 0.00
8:53 am 08:53 Sunny 22 -5.6 17 -8.3 82 82 NW 6 9 29.72 1006 10 16 0.00 0.00
9:53 am 09:53 Sunny 22 -5.6 17 -8.3 82 82 W 5 7 29.74 1007 10 16 0.00 0.00
10:53 am 10:53 Sunny 25 -3.9 19 -7.2 78 78 Calm 29.74 1007 10 16 0.00 0.00
11:53 am 11:53 Mostly Cloudy 30 -1.1 21 -6.1 69 69 Calm 29.71 1006 10 16 0.00 0.00
12:53 pm 12:53 Sunny 31 -0.6 21 -6.1 67 67 WNW 3 6 29.68 1005 10 16 0.00 0.00
1:53 pm 13:53 Sunny 34 1.1 20 -6.7 56 56 WNW 7 11 29.68 1005 10 16 0.00 0.00
2:53 pm 14:53 Mostly Sunny 33 0.6 20 -6.7 58 58 NW 7 11 29.69 1005 10 16 0.00 0.00
3:53 pm 15:53 Mostly Cloudy 29 -1.7 18 -7.8 63 63 N 7 11 29.71 1006 10 16 0.00 0.00
4:53 pm 16:53 Mostly Cloudy 22 -5.6 15 -9.4 75 75 WNW 6 9 29.73 1007 10 16 0.00 0.00
5:53 pm 17:53 Clear 16 -8.9 11 -11.7 80 80 NW 7 11 29.73 1007 10 16 0.00 0.00
6:53 pm 18:53 Mostly Cloudy 14 -10 9 -12.8 80 80 NW 7 11 29.74 1007 10 16 0.00 0.00
7:53 pm 19:53 Mostly Cloudy 13 -10.6 8 -13.3 81 81 WNW 6 9 29.73 1007 10 16 0.00 0.00
8:53 pm 20:53 Mostly Clear 11 -11.7 6 -14.4 81 81 WNW 6 9 29.74 1007 10 16 0.00 0.00
9:53 pm 21:53 Mostly Clear 9 -12.8 5 -15 84 84 WSW 5 7 29.74 1007 10 16 0.00 0.00
10:53 pm 22:53 Cloudy 10 -12.2 5 -15 80 80 W 8 13 29.74 1007 10 16 0.00 0.00
11:53 pm 23:53 Cloudy 10 -12.2 5 -15 80 80 W 8 13 29.75 1007 10 16 0.00 0.00

Powered by AerisWeather